Weather reports worldwide

Advertisment
Freiburg, Germany (10803): temperature & dewpoint: 01.08.2020 03:00:00 - 07.08.2020 03:00:00 (CEST)Freiburg, Germany (10803): temperature 5cm & temperature -5cm: 01.08.2020 03:00:00 - 07.08.2020 03:00:00 (CEST)Freiburg, Germany (10803): temperature -20cm & temperature -100cm: 01.08.2020 03:00:00 - 07.08.2020 03:00:00 (CEST)Freiburg, Germany (10803): wind speed & gusts: 01.08.2020 03:00:00 - 07.08.2020 03:00:00 (CEST)Freiburg, Germany (10803): wind direction: 01.08.2020 03:00:00 - 07.08.2020 03:00:00 (CEST)Freiburg, Germany (10803): reduced air pressure: 01.08.2020 03:00:00 - 07.08.2020 03:00:00 (CEST)Freiburg, Germany (10803): visibility: 01.08.2020 03:00:00 - 07.08.2020 03:00:00 (CEST)Freiburg, Germany (10803): sunshine duration: 01.08.2020 03:00:00 - 07.08.2020 03:00:00 (CEST)Freiburg, Germany (10803): precipitation: 01.08.2020 03:00:00 - 07.08.2020 03:00:00 (CEST)
Date & Time tt [°C] td [°C] tt 5cm [°C] tt -5cm [°C] tt -20cm [°C] tt -100cm [°C] ff [km/h] ff [kn] fx [km/h] fx [kn] dd ppp [hPa] vv [km] sd [min] rr [mm]
07.08.2020 03:00:00 19,4 14,6 16,1 20,5 24,0 20,6 5 3 10 6 N 1018,8 43 0 0,0
07.08.2020 02:00:00 20,1 15,0 16,8 21,2 24,4 20,6 5 3 9 5 N 1018,9 44 0 0,0
07.08.2020 01:00:00 22,0 15,8 18,1 22,0 24,9 20,6 4 2 10 6 WNW 1018,9 44 0 0,0
07.08.2020 00:00:00 22,3 15,8 19,0 22,9 25,3 20,6 7 4 12 7 W 1018,8 40 0 0,0
06.08.2020 23:00:00 22,1 15,6 19,4 24,0 25,6 20,6 4 2 18 10 ESE 1018,6 35 0 0,0
06.08.2020 22:00:00 24,3 15,6 21,1 25,3 25,9 20,6 7 4 9 5 SSE 1018,0 43 0 0,0
06.08.2020 21:00:00 25,2 15,3 21,9 27,2 26,1 20,7 5 3 9 5 WSW 1017,5 42 11 0,0
06.08.2020 20:00:00 28,0 14,3 27,7 29,3 26,0 20,7 8 4 17 9 WNW 1017,0 68 60 0,0
06.08.2020 19:00:00 28,3 14,3 29,7 31,2 25,8 20,7 12 6 22 12 NNW 1016,7 67 60 0,0
06.08.2020 18:00:00 28,4 14,1 31,9 33,0 25,3 20,7 13 7 23 12 NW 1016,9 53 60 0,0
06.08.2020 17:00:00 28,3 13,7 33,2 33,9 24,6 20,7 14 7 22 12 NNW 1016,9 36 60 0,0
06.08.2020 16:00:00 28,2 13,8 34,2 34,1 23,8 20,7 11 6 25 14 NW 1017,2 34 60 0,0
06.08.2020 15:00:00 27,2 13,9 32,8 33,3 22,8 20,7 9 5 20 11 NNW 1017,6 46 60 0,0
06.08.2020 14:00:00 25,9 13,3 32,9 32,0 21,9 20,7 9 5 19 10 NW 1018,2 44 60 0,0
06.08.2020 13:00:00 24,7 11,8 28,9 29,6 21,1 20,7 6 3 16 9 N 1018,8 45 60 0,0
06.08.2020 12:00:00 23,7 12,1 28,4 26,9 20,4 20,7 7 4 16 9 N 1018,9 45 60 0,0
06.08.2020 11:00:00 21,6 11,8 25,4 24,0 19,9 20,8 8 4 14 8 N 1019,2 52 60 0,0
06.08.2020 10:00:00 20,1 11,3 22,9 21,3 19,7 20,8 3 2 11 6 W 1019,3 56 60 0,0
06.08.2020 09:00:00 18,0 11,5 22,5 18,4 19,7 20,8 5 3 8 4 N 1019,6 45 60 0,0
06.08.2020 08:00:00 16,1 11,7 18,4 16,0 19,9 20,8 3 2 4 2 N 1019,5 27 43 0,0
06.08.2020 07:00:00 12,8 10,8 10,7 15,0 20,3 20,8 2 1 9 5 NNE 1019,5 32 0 0,0
06.08.2020 06:00:00 12,9 11,0 10,2 15,2 20,7 20,8 2 1 7 4 W 1019,0 44 0 0,0
06.08.2020 05:00:00 12,8 11,3 9,7 15,8 21,0 20,8 4 2 6 3 NE 1018,6 19 0 0,0
06.08.2020 04:00:00 13,8 11,3 10,6 16,3 21,4 20,9 0 0 4 2 N 1018,6 56 0 0,0
06.08.2020 03:00:00 14,8 11,1 11,7 17,0 21,8 20,9 3 2 8 4 WNW 1018,5 55 0 0,0
06.08.2020 02:00:00 16,1 11,0 12,4 17,7 22,3 20,9 7 4 10 5 NNW 1018,1 59 0 0,0
06.08.2020 01:00:00 19,6 10,9 15,4 18,5 22,7 20,9 5 3 14 7 N 1017,4 70 0 0,0
06.08.2020 00:00:00 18,4 10,7 15,7 19,3 23,1 20,9 8 4 24 13 NW 1017,4 70 0 0,0
05.08.2020 23:00:00 22,0 10,2 19,8 20,2 23,5 20,9 10 6 18 10 SE 1017,0 70 0 0,0
05.08.2020 22:00:00 22,9 10,2 18,8 21,6 23,8 20,9 6 3 19 11 SE 1016,5 70 0 0,0
05.08.2020 21:00:00 24,8 10,1 22,5 23,4 24,0 21,0 12 7 22 12 ESE 1015,7 70 12 0,0
05.08.2020 20:00:00 26,2 8,3 25,0 25,6 24,0 21,0 6 4 18 10 NE 1015,2 70 60 0,0
05.08.2020 19:00:00 27,3 7,2 27,6 27,9 23,8 21,0 8 5 21 11 E 1014,4 70 60 0,0
05.08.2020 18:00:00 27,5 6,8 29,0 29,1 23,4 21,0 10 5 29 16 NE 1014,6 70 60 0,0
05.08.2020 17:00:00 27,7 7,4 30,0 29,3 22,9 21,0 11 6 32 17 NNE 1014,6 58 60 0,0
05.08.2020 16:00:00 26,8 7,6 31,2 29,0 22,3 21,0 12 6 27 15 N 1014,9 52 60 0,0
05.08.2020 15:00:00 26,6 7,3 30,8 28,6 21,6 21,0 7 4 23 12 NE 1015,4 58 59 0,0
05.08.2020 14:00:00 25,3 9,1 29,4 28,1 20,9 21,1 10 6 18 10 N 1016,1 40 60 0,0
05.08.2020 13:00:00 23,8 10,6 28,1 26,3 20,2 21,1 10 5 22 12 NNW 1016,8 40 60 0,0
05.08.2020 12:00:00 21,9 11,8 25,5 24,8 19,5 21,1 10 5 16 9 N 1017,5 36 60 0,0
05.08.2020 11:00:00 20,4 12,5 23,9 22,6 19,0 21,1 6 4 12 7 NNE 1018,0 50 60 0,0
05.08.2020 10:00:00 18,0 10,8 23,1 19,9 18,7 21,1 6 3 9 5 NW 1018,7 52 60 0,0
05.08.2020 09:00:00 16,1 10,2 18,0 16,8 18,8 21,1 6 3 14 7 N 1019,0 60 60 0,0
05.08.2020 08:00:00 12,6 10,5 13,2 14,4 19,0 21,1 11 6 15 8 NNW 1019,2 39 44 0,0
05.08.2020 07:00:00 11,4 10,2 9,5 13,3 19,4 21,2 5 3 8 4 ENE 1019,2 34 0 0,0
05.08.2020 06:00:00 10,5 9,9 7,8 13,6 19,7 21,2 2 1 4 2 WNW 1019,2 23 0 0,0
05.08.2020 05:00:00 10,4 9,7 8,5 14,1 20,1 21,2 0 0 7 4 N 1019,2 14 0 0,0
05.08.2020 04:00:00 11,1 10,0 8,3 14,6 20,5 21,2 5 3 6 3 N 1019,0 26 0 0,0
05.08.2020 03:00:00 11,2 10,2 9,1 15,2 20,9 21,2 3 2 9 5 NNW 1019,0 21 0 0,0
05.08.2020 02:00:00 11,8 10,2 10,1 15,9 21,4 21,2 2 1 6 4 E 1019,1 26 0 0,0
05.08.2020 01:00:00 12,5 11,5 10,6 16,7 21,8 21,2 2 1 5 3 WNW 1019,1 18 0 0,0
05.08.2020 00:00:00 13,9 12,2 11,5 17,5 22,2 21,3 4 2 11 6 N 1019,0 38 0 0,0
04.08.2020 23:00:00 16,9 11,9 15,0 18,4 22,6 21,3 5 3 15 8 SSE 1018,7 61 0 0,0
04.08.2020 22:00:00 18,2 12,2 16,0 19,6 23,0 21,3 9 5 19 10 SW 1018,4 70 0 0,0
04.08.2020 21:00:00 19,2 11,9 17,3 21,3 23,2 21,3 7 4 17 9 WSW 1017,8 70 13 0,0
04.08.2020 20:00:00 21,2 9,5 20,5 23,3 23,2 21,3 7 4 15 8 E 1017,0 70 50 0,0
04.08.2020 19:00:00 21,4 9,4 21,9 25,7 23,0 21,3 6 4 13 7 ENE 1016,8 63 24 0,0
04.08.2020 18:00:00 21,9 10,4 24,0 26,9 22,7 21,3 7 4 15 8 ESE 1016,8 62 58 0,0
04.08.2020 17:00:00 21,2 11,7 23,6 26,5 22,3 21,4 8 4 25 13 SSE 1016,8 68 30 0,0
04.08.2020 16:00:00 21,0 12,5 25,1 25,2 22,0 21,4 16 9 25 13 SSE 1016,8 54 13 0,0
04.08.2020 15:00:00 19,5 12,8 21,0 24,8 21,7 21,4 6 3 16 9 ENE 1017,0 36 3 0,0
04.08.2020 14:00:00 19,7 12,6 23,8 24,9 21,2 21,4 8 4 18 10 NE 1016,6 39 16 0,0
04.08.2020 13:00:00 18,5 12,4 22,4 24,4 20,7 21,4 9 5 16 9 NNW 1016,4 38 14 0,0
04.08.2020 12:00:00 18,3 13,1 22,6 23,1 20,4 21,4 6 4 12 6 NNW 1016,3 37 23 0,0
04.08.2020 11:00:00 16,9 13,7 18,6 20,7 20,2 21,4 4 2 9 5 NW 1016,3 42 1 0,0
04.08.2020 10:00:00 16,3 13,6 18,0 19,2 20,1 21,4 4 2 7 4 N 1015,9 39 0 0,0
04.08.2020 09:00:00 15,5 13,2 15,9 18,1 20,2 21,4 0 0 6 3 N 1015,5 43 0 0,0
04.08.2020 08:00:00 14,6 13,4 14,8 17,4 20,3 21,5 4 2 6 4 NNE 1014,8 27 0 0,0
04.08.2020 07:00:00 14,6 13,2 13,9 17,2 20,4 21,5 3 2 10 5 SE 1014,2 54 0 0,1
04.08.2020 06:00:00 14,6 14,0 14,4 17,3 20,6 21,5 0 0 7 4 N 1013,9 6 0 0,9
04.08.2020 05:00:00 14,8 14,2 14,6 17,4 20,7 21,5 2 1 6 3 NE 1013,7 4,8 0 0,4
04.08.2020 04:00:00 14,6 14,1 14,6 17,4 20,9 21,5 4 2 6 3 NNW 1013,7 3,6 0 0,2
04.08.2020 03:00:00 14,7 13,9 14,3 17,5 21,1 21,5 0 0 6 3 N 1013,3 7 0 0,0
04.08.2020 02:00:00 15,1 14,3 14,6 17,8 21,3 21,5 3 2 9 5 NNE 1013,2 9 0 0,0
04.08.2020 01:00:00 15,0 14,5 14,9 18,0 21,5 21,5 6 3 8 5 NNW 1013,5 5 0 0,0
04.08.2020 00:00:00 15,1 14,4 14,8 18,0 21,7 21,5 4 2 13 7 WNW 1013,3 8 0 0,0
03.08.2020 23:00:00 15,2 14,3 14,7 18,4 22,0 21,5 9 5 13 7 W 1012,9 10 0 0,3
03.08.2020 22:00:00 15,2 14,1 14,9 18,7 22,3 21,5 4 2 8 4 W 1012,8 14 0 0,0
03.08.2020 21:00:00 15,1 14,5 15,0 19,1 22,7 21,5 5 3 8 5 N 1012,4 4,7 0 4,1
03.08.2020 20:00:00 16,0 13,7 15,1 19,6 23,1 21,5 5 3 14 8 S 1011,9 14 0 1,3
03.08.2020 19:00:00 15,6 13,8 15,1 20,2 23,5 21,6 7 4 14 8 SE 1012,0 4,8 0 1,9
03.08.2020 18:00:00 16,0 14,6 15,7 20,7 23,7 21,6 8 4 23 12 N 1012,2 8 0 12,3
03.08.2020 17:00:00 17,8 14,2 17,0 22,1 23,9 21,6 13 7 30 16 SW 1011,3 21 0 1,7
03.08.2020 16:00:00 18,2 14,8 18,5 23,8 23,8 21,6 22 12 33 18 SSW 1010,7 35 0 0,3
03.08.2020 15:00:00 22,5 12,2 24,5 25,8 23,5 21,6 15 8 27 14 NW 1010,1 48 23 0,0
03.08.2020 14:00:00 23,3 12,8 28,1 26,5 23,1 21,6 11 6 24 13 N 1010,1 32 60 0,0
03.08.2020 13:00:00 22,5 13,3 26,9 25,2 22,8 21,6 10 6 25 14 NNW 1010,8 40 8 0,0
03.08.2020 12:00:00 21,4 14,4 23,6 24,8 22,5 21,6 8 5 19 10 N 1011,5 35 9 0,0
03.08.2020 11:00:00 20,7 14,2 25,2 23,8 22,2 21,6 9 5 16 8 NW 1011,9 42 14 0,0
03.08.2020 10:00:00 20,1 14,9 23,4 22,5 22,0 21,6 5 3 13 7 NNW 1012,1 41 33 0,0
03.08.2020 09:00:00 19,2 15,0 21,0 21,3 22,0 21,6 3 2 8 4 NNW 1012,3 38 37 0,0
03.08.2020 08:00:00 17,6 15,7 17,6 19,3 22,1 21,6 4 2 6 4 N 1012,6 26 30 0,0
03.08.2020 07:00:00 16,4 15,7 15,5 18,3 22,4 21,6 2 1 6 3 NNW 1013,2 25 0 0,0
03.08.2020 06:00:00 15,5 14,9 14,0 18,5 22,7 21,6 2 1 4 2 N 1012,9 13 0 0,0
03.08.2020 05:00:00 16,2 15,7 14,5 18,9 22,9 21,6 0 0 6 3 N 1012,6 15 0 0,0
03.08.2020 04:00:00 16,8 16,2 15,5 19,6 23,1 21,6 2 1 5 3 NE 1013,1 18 0 0,0
03.08.2020 03:00:00 17,1 16,3 16,3 19,9 23,4 21,6 0 0 6 3 N 1013,8 16 0 0,0
03.08.2020 02:00:00 17,6 16,9 16,7 20,2 23,6 21,5 2 1 6 3 NE 1014,0 20 0 0,0
03.08.2020 01:00:00 17,6 16,9 17,1 20,5 23,8 21,5 4 2 6 4 NW 1014,4 16 0 0,0
03.08.2020 00:00:00 18,5 17,1 17,6 21,0 24,1 21,5 3 2 7 4 NE 1014,2 22 0 0,0
02.08.2020 23:00:00 19,8 16,8 18,9 21,3 24,3 21,5 6 4 12 6 SSE 1014,0 44 0 0,0
02.08.2020 22:00:00 20,1 16,9 19,4 21,8 24,5 21,5 7 4 14 8 S 1014,5 40 0 0,0
02.08.2020 21:00:00 20,6 17,0 20,0 22,6 24,6 21,5 10 5 17 9 SSE 1014,0 40 0 0,0
02.08.2020 20:00:00 20,9 16,7 20,8 23,5 24,7 21,5 8 5 13 7 SSE 1013,6 43 0 0,0
02.08.2020 19:00:00 21,2 16,0 21,3 24,4 24,7 21,5 7 4 13 7 SSE 1013,9 49 0 0,0
02.08.2020 18:00:00 21,1 16,7 21,4 24,5 24,7 21,5 8 4 20 11 SE 1014,3 36 1 0,0
02.08.2020 17:00:00 20,1 17,8 19,9 22,9 24,8 21,5 13 7 20 11 SE 1014,8 23 0 1,4
02.08.2020 16:00:00 20,1 17,7 19,7 23,0 25,1 21,5 9 5 12 6 S 1015,1 19 0 2,5
02.08.2020 15:00:00 19,1 17,9 18,7 22,7 25,4 21,5 8 4 19 10 SE 1015,5 5 0 12,0
02.08.2020 14:00:00 20,2 17,6 19,5 25,0 25,3 21,4 12 6 24 13 N 1015,2 10 0 0,1
02.08.2020 13:00:00 23,1 17,6 26,2 25,6 25,3 21,4 5 3 10 5 NNE 1014,7 40 0 0,0
02.08.2020 12:00:00 22,3 17,9 23,4 25,1 25,2 21,4 5 3 10 5 N 1015,4 38 0 0,0
02.08.2020 11:00:00 22,5 17,2 24,8 24,8 25,2 21,4 4 2 8 5 NW 1015,1 46 0 0,0
02.08.2020 10:00:00 21,4 18,3 22,7 24,0 25,3 21,4 6 3 9 5 NNW 1015,1 41 0 0,0
02.08.2020 09:00:00 21,1 17,8 21,6 22,9 25,5 21,4 3 1 5 3 W 1014,8 41 0 0,0
02.08.2020 08:00:00 19,5 17,3 19,6 22,2 25,8 21,4 5 3 8 4 NW 1014,6 37 0 0,0
02.08.2020 07:00:00 20,3 17,2 19,6 21,9 26,1 21,4 4 2 16 9 SSE 1014,4 49 0 0,0
02.08.2020 06:00:00 19,4 18,0 18,8 22,1 26,5 21,4 8 4 13 7 SW 1014,6 26 0 0,0
02.08.2020 05:00:00 20,2 17,0 19,3 22,5 27,0 21,3 7 4 17 9 ESE 1014,4 50 0 0,0
02.08.2020 04:00:00 20,7 17,6 19,8 22,9 27,4 21,3 9 5 26 14 SE 1014,7 34 0 0,0
02.08.2020 03:00:00 20,1 18,2 19,3 23,4 27,9 21,3 16 9 29 15 SW 1015,3 33 0 0,0
02.08.2020 02:00:00 20,3 18,5 19,3 23,9 28,5 21,3 5 3 14 8 NE 1014,8 31 0 0,0
02.08.2020 01:00:00 20,0 18,2 19,1 24,7 29,1 21,3 22 12 39 21 WNW 1015,1 19 0 2,8
02.08.2020 00:00:00 21,3 17,7 19,2 26,3 29,6 21,3 29 16 44 24 SE 1014,7 10 0 2,6
01.08.2020 23:00:00 21,5 18,1 19,7 28,2 30,0 21,3 28 15 46 25 S 1015,7 7 0 0,4
01.08.2020 22:00:00 25,5 17,3 25,4 30,1 30,4 21,3 27 14 43 23 WSW 1013,9 23 0 0,0
01.08.2020 21:00:00 29,6 15,2 27,7 31,6 30,6 21,3 5 3 12 6 NE 1011,5 51 0 0,0
01.08.2020 20:00:00 31,5 14,7 30,2 33,8 30,5 21,3 9 5 15 8 NNW 1011,5 54 44 0,0
01.08.2020 19:00:00 33,3 13,6 35,8 36,0 30,3 21,2 10 6 19 10 NNW 1011,4 50 60 0,0
01.08.2020 18:00:00 33,5 14,0 36,9 37,1 29,8 21,2 13 7 30 16 NNW 1011,9 38 60 0,0
01.08.2020 17:00:00 34,1 14,5 39,9 37,7 29,3 21,2 16 9 28 15 NW 1012,1 34 60 0,0
01.08.2020 16:00:00 33,7 14,2 40,4 37,5 28,6 21,2 16 9 31 17 NNW 1012,6 41 60 0,0
01.08.2020 15:00:00 33,9 13,9 39,4 35,9 28,0 21,2 10 5 19 10 E 1012,9 34 32 0,0
01.08.2020 14:00:00 31,6 13,9 34,4 34,3 27,4 21,2 7 4 19 10 WNW 1013,9 56 20 0,0
01.08.2020 13:00:00 31,5 13,7 37,5 34,1 26,8 21,2 8 4 20 11 E 1014,3 38 42 0,0
01.08.2020 12:00:00 30,1 13,1 34,9 32,2 26,4 21,2 11 6 21 11 NNW 1014,7 50 32 0,0
01.08.2020 11:00:00 29,7 13,6 33,9 29,9 26,1 21,2 4 2 11 6 S 1014,7 43 45 0,0
01.08.2020 10:00:00 26,6 14,7 28,2 26,2 26,1 21,1 3 2 16 9 SW 1014,9 40 0 0,0
01.08.2020 09:00:00 23,8 14,6 24,5 25,0 26,2 21,1 8 4 16 9 W 1014,9 37 7 0,0
01.08.2020 08:00:00 26,3 13,8 26,8 24,4 26,5 21,1 6 4 11 6 S 1014,5 34 8 0,0
01.08.2020 07:00:00 22,1 14,2 20,9 23,7 26,8 21,1 8 4 16 9 W 1015,1 30 0 0,0
01.08.2020 06:00:00 20,2 14,1 18,3 23,6 27,2 21,1 2 1 8 4 NW 1014,2 35 0 0,0
01.08.2020 05:00:00 19,9 14,1 16,3 24,1 27,6 21,1 2 1 9 5 NNE 1014,3 36 0 0,0
01.08.2020 04:00:00 21,3 14,0 18,3 24,8 28,0 21,1 6 4 10 5 NNW 1014,6 38 0 0,0
01.08.2020 03:00:00 24,3 13,9 21,7 25,3 28,5 21,1 9 5 33 18 S 1014,7 40 0 0,0

tt = temperature
td = dewpoint
tt 5cm = temperature 5cm
tt -5cm = temperature -5cm
tt -20cm = temperature -20cm
tt -100cm = temperature -100cm
ff = wind speed
fx = gusts
dd = wind direction
ppp = reduced air pressure
vv = visibility
sd = sunshine duration
rr = precipitation

Next stations